Погода в Пор-де-Пе

Гаити     19°56′23″N   72°49′49″W
темп.,
°C
ветер,
м/с
пор.,
м/с
влажн.,
%
обл.,
%
осадки,
мм/ч
давл.,
гПа
погр.,
м
21 июня, пн
пн2123:00+28в9108674 0.1 1017494
02:00+28вюв678192 0.6 1016510
05:00+27в787944 0.1 1016798
08:00+27в778119 0.1 1017640
11:00+27в89825 0.0 1018571
14:00+27всв11118473 0.2 1017511
17:00+28в111283100 1.2 1016793
20:00+28вюв5679100 1.7 1016314
22 июня, вт
вт2223:00+27в6674100 0.0 1016385
02:00+27вюв556497 0.0 1016296
05:00+27вюв7975100 0.0 1016532
08:00+27вюв91080100 0.0 1017803
11:00+27в91082100 0.0 1018637
14:00+27всв11118499 0.0 1016583
17:00+27в111181100 0.4 1015663
20:00+28в9982100 0.6 1016697
23 июня, ср
ср2323:00+28в91083100 0.4 1017514
02:00+28в6778100 0.8 1016706
05:00+27в7976100 0.0 10161055
08:00+27в81076100 0.1 10171006
11:00+27в10117885 0.0 1017760
14:00+27всв10118196 0.0 1016609
17:00+27в11118194 0.0 1015789
20:00+27в9117687 0.0 10161065
24 июня, чт
чт2423:00+27в111278100 0.1 10161079
02:00+27в91080100 0.1 1015959
05:00+27в8107529 0.1 10151036
08:00+27вюв8107884 0.1 1016946
11:00+27в897789 0.0 1016836
14:00+27всв997594 0.0 1015769
17:00+27в10107522 0.0 1014869
20:00+27в9107591 0.0 1014943
25 июня, пт
пт2523:00+27в8976100 0.1 1015969
02:00+27в887896 0.3 1014882
05:00+27вюв787693 0.1 1013819
08:00+27в797558 0.1 1014937
11:00+26в8878100 0.0 1015625
14:00+26всв998177 0.0 1013493
17:00+27всв111179100 0.4 1012821
20:00+28в8972100 0.6 1014925